OneWeb SL0556

operational
NORAD ID: 55798 Int'l Des: 2023-029 Owner: ONEWEBN Country: UK Constellation: oneweb
LEOCIRCULARPOLARONEWEB_TYPE

关于 OneWeb SL0556

正在加载描述...

实时位置

正在加载3D地球...

即将过境

高度历史

Altitude vs Time

uPlot chart will show altitude changes over time

两行轨道根数

1 55798U 23029C 26034.22188576 .00000094 00000-0 19893-3 0 9990
2 55798 87.9217 301.2168 0001666 44.9503 315.1765 13.20773052143461
Epoch: Feb 3, 2026 • Age: 9 hours

当前状态

高度 1208.6 km
速度 7.25 km/s
星下点 -70.15°S, 49.28°W
发射日期 Mar 9, 2023
运行时间 2.9 years
类型 internet

技术详情

分类 Payload
质量 148.00 kg
干质量 140.00 kg
总质量 148.00 kg
长度 1.30 m
直径 1.00 m
跨度 5.00 m
形状 Trapezoid+2 pan
制造商 ONEWUS
平台类型 ARROW
阶段状态 In Orbit
所有者/国家 ONEWEBN/UK

大型星座

Loading constellations...